Lapse_Rate
-2.4 -2.8 -2.9 -3.1 -3.3 -3.5 -4.1 -4.6 -4.9 -5.4 -5.8 -6.4 -6.8 -6.8 -7.0 -7.2 -6.8 -6.4 0.3 3.2 1.5 0.6 1.9 0.9 2.8 3.3 3.5 3.5 4.2 4.8 6.5 6.5 6.5 6.5 6.5 6.1 6.5 7.2 7.4 7.2 7.2 7.2 7.3 5.9 5.8
-2.6 -2.7 -2.9 -3.2 -3.3 -3.6 -4.0 -4.5 -4.9 -5.4 -5.9 -6.3 -6.5 -6.5 -6.7 -6.7 -4.2 -1.1 0.8 1.3 0.5 0.3 3.9 4.2 5.1 3.4 3.2 4.3 4.1 5.5 6.5 6.5 6.5 6.4 6.5 6.6 6.5 6.9 6.9 6.9 7.1 6.4 5.8 5.9 6.0
-2.8 -3.0 -3.0 -3.2 -3.4 -3.6 -4.0 -4.4 -4.9 -5.6 -5.9 -6.0 -6.1 -6.1 -6.3 -6.4 2.3 3.2 0.5 -0.4 0.6 0.5 4.5 4.3 4.8 5.0 5.3 4.6 5.4 6.0 6.5 6.5 6.3 6.0 6.6 6.2 6.6 7.0 6.6 6.5 7.1 6.9 6.3 6.4 6.1
-2.6 -3.0 -3.2 -3.4 -3.5 -3.6 -3.8 -4.2 -4.7 -5.3 -5.7 -5.7 -5.5 -5.7 -5.6 -3.1 6.5 4.2 -0.6 -1.0 -0.6 1.1 4.1 4.5 4.5 5.5 6.3 6.5 5.0 6.4 5.8 6.3 6.3 6.3 6.5 6.4 6.2 6.6 6.6 6.4 7.8 8.0 7.2 6.5 6.3
-2.3 -2.7 -3.2 -3.5 -3.7 -3.8 -3.9 -4.3 -4.7 -5.2 -5.1 -5.2 -4.8 -4.9 -2.5 3.8 2.6 1.2 -0.3 -1.0 -0.6 2.3 4.0 4.7 5.0 5.4 6.5 6.3 6.0 6.5 6.4 5.9 5.9 6.1 5.2 6.3 6.2 6.4 6.9 6.7 7.6 7.1 7.5 6.9 6.7
-1.9 -2.5 -2.9 -3.5 -3.8 -4.0 -4.3 -4.4 -4.8 -5.1 -4.7 -4.5 -4.4 -4.2 1.7 5.9 4.4 2.3 0.5 0.9 2.4 3.2 4.1 4.2 4.8 5.5 5.8 6.1 6.4 5.8 6.1 6.4 5.7 6.5 6.6 6.4 6.4 5.8 7.1 7.2 7.3 7.2 7.6 8.0 7.5
-1.7 -2.3 -2.9 -3.1 -3.6 -4.1 -4.5 -4.5 -5.0 -4.9 -4.4 -4.1 -3.9 -2.2 2.3 2.5 2.2 1.7 1.9 3.0 2.9 3.3 4.7 3.8 4.9 5.7 5.8 6.5 5.6 5.5 6.5 6.5 6.3 6.1 6.4 5.9 6.5 6.5 6.7 6.9 7.2 7.2 6.7 6.8 6.4
-1.5 -2.2 -2.6 -3.2 -3.6 -4.2 -4.5 -4.9 -5.1 -4.7 -3.7 -3.2 -3.5 -0.9 2.3 2.5 1.6 2.4 2.3 3.5 3.1 2.8 4.2 4.7 4.8 4.9 5.4 5.1 4.9 6.5 6.5 6.5 6.6 6.2 6.2 6.2 6.5 6.5 6.8 6.3 6.8 7.2 6.9 6.3 5.4
-0.7 -1.8 -2.5 -3.0 -3.6 -4.3 -4.7 -5.2 -4.8 -3.5 -2.5 -2.3 -0.9 2.1 2.8 2.7 3.3 2.8 3.6 4.9 4.6 4.1 3.9 5.6 4.8 3.7 4.2 6.5 6.5 6.5 6.5 6.5 6.5 6.1 6.5 6.5 6.5 6.3 6.5 6.6 6.3 6.8 6.8 6.7 5.6
-0.1 -1.0 -2.2 -2.8 -3.2 -4.4 -4.9 -5.1 -4.3 -3.1 -1.4 0.0 2.2 4.1 2.6 5.9 4.6 3.6 2.4 5.2 5.7 5.6 5.9 5.2 1.7 6.5 6.5 6.5 6.5 6.5 6.5 6.6 6.5 6.5 6.5 6.5 6.5 6.5 6.6 6.7 6.4 6.0 6.3 6.6 6.0
-0.3 -0.8 -1.7 -2.6 -3.2 -3.8 -5.9 -2.5 2.0 3.8 3.2 3.6 4.0 3.8 3.9 5.1 5.8 5.2 3.6 4.8 6.0 4.7 6.5 5.2 6.5 6.5 6.5 6.5 6.5 6.5 6.5 6.5 6.5 6.5 6.5 6.5 6.5 6.5 6.5 6.5 6.5 5.9 5.8 5.6 5.6
0.1 -0.6 -1.3 -2.3 -2.9 -3.5 -5.3 2.0 3.5 3.9 4.3 1.2 2.3 3.5 3.3 5.7 6.3 5.4 4.7 5.5 5.6 6.5 6.4 6.5 6.5 6.5 6.5 6.5 6.5 6.5 6.5 6.5 6.5 6.5 6.5 6.5 6.5 6.5 6.5 6.5 6.6 6.6 6.0 5.3 4.9
0.6 -0.3 -1.2 -2.1 -3.0 -3.4 -3.8 1.7 1.1 1.8 5.0 3.5 2.0 2.5 3.1 3.5 4.9 4.4 4.7 4.1 6.3 6.5 6.5 6.5 6.5 6.4 6.5 6.5 6.5 6.5 6.5 6.5 6.5 6.5 6.5 6.5 6.5 6.5 6.5 6.5 6.3 6.6 6.3 5.3 4.8
1.1 0.3 -1.0 -2.3 -1.3 -4.9 -0.1 -0.2 -1.4 -0.7 6.5 6.5 5.7 4.2 4.2 3.2 6.0 4.4 4.6 5.2 6.3 6.5 6.5 6.5 6.4 6.5 6.5 6.5 6.5 6.5 6.5 6.5 6.6 6.5 6.5 6.5 6.5 6.5 6.5 6.6 6.2 6.3 6.2 6.1 5.7
2.2 0.8 -0.2 -1.2 -3.6 -2.5 0.9 -3.0 -2.0 1.0 6.5 6.5 6.0 6.1 3.0 4.9 5.2 5.8 4.6 5.1 6.5 6.5 6.4 6.5 6.5 6.5 6.5 6.5 6.5 6.5 6.5 6.5 6.5 6.5 6.5 6.5 6.5 6.5 6.5 6.5 6.5 6.3 5.8 5.6 5.0
2.9 1.6 0.1 -1.3 -4.2 -3.3 -2.8 -3.4 -0.1 6.5 6.5 6.5 6.1 6.4 6.4 5.8 5.8 5.7 5.5 5.1 4.5 6.5 6.5 6.5 6.0 6.4 6.5 6.5 6.5 6.5 6.5 6.5 6.5 6.5 6.5 6.5 6.5 6.5 6.6 6.5 6.5 6.2 6.2 5.6 4.9
2.9 2.2 0.6 0.3 -0.4 -0.9 -2.8 1.1 6.5 6.5 6.5 6.5 6.5 6.5 6.5 6.5 6.5 6.5 6.5 6.5 6.5 6.5 6.5 6.5 6.5 6.5 6.3 6.5 6.5 6.4 6.5 6.5 6.5 6.5 6.5 6.5 6.5 6.5 6.5 6.5 6.5 6.3 6.2 6.1 5.3
3.5 1.5 -0.4 -0.9 -1.4 -1.5 0.6 6.1 6.5 6.5 6.5 6.5 6.5 6.5 6.5 6.5 6.5 6.5 6.5 6.5 6.5 6.5 6.5 6.5 6.5 6.5 6.5 6.5 6.5 6.5 6.5 6.5 6.5 6.5 6.5 6.5 6.5 6.5 6.5 5.0 5.4 5.4 5.0 6.0 6.1
3.2 -1.0 -3.5 -3.6 -1.5 -1.2 2.9 6.5 6.5 6.5 6.5 6.5 6.5 6.5 6.5 6.5 6.5 6.5 6.5 6.5 6.5 6.5 6.5 6.5 6.5 6.5 6.5 6.5 6.5 6.5 6.5 6.5 6.5 6.5 6.5 6.5 6.5 6.5 6.5 6.5 6.0 5.0 4.8 5.3 5.2
1.8 -1.0 -2.4 0.2 -0.3 0.1 5.7 6.5 6.5 6.5 6.5 6.5 6.5 6.5 6.5 6.6 6.5 6.5 6.5 6.5 6.5 6.5 6.3 6.5 6.5 6.5 6.5 6.0 6.4 6.5 6.5 6.5 6.5 6.5 6.5 6.5 6.5 6.5 6.5 6.5 6.5 6.2 4.3 4.0 3.4
1.3 2.2 2.7 1.0 1.2 2.8 6.5 6.5 6.5 5.4 5.9 6.5 6.5 6.5 6.5 6.5 6.5 6.5 6.5 6.5 6.5 6.5 6.2 6.5 6.5 6.5 6.5 6.5 6.5 6.5 6.5 6.5 6.5 6.5 6.5 6.5 6.5 6.5 6.5 6.5 6.5 5.7 4.0 2.3 1.8
2.0 6.4 3.8 3.1 5.4 5.3 6.5 6.5 5.5 6.5 6.2 6.5 6.5 6.5 6.5 6.5 6.5 6.5 6.5 6.5 5.2 5.8 6.5 6.5 6.5 6.5 6.5 6.5 6.5 6.6 6.5 6.5 6.5 6.5 6.5 6.5 6.5 6.6 6.5 6.3 5.1 4.1 2.9 2.5 1.7
3.2 2.4 1.9 4.6 6.5 6.5 6.5 6.5 6.4 6.5 6.5 6.5 6.5 6.5 6.5 6.5 6.5 6.5 6.5 6.3 4.9 6.5 6.5 6.5 6.5 6.5 6.5 6.6 6.5 6.5 6.5 6.6 6.5 6.5 6.5 6.5 6.5 6.5 6.2 6.3 5.3 3.7 1.2 -0.1 -0.7
3.6 6.5 2.9 2.4 3.1 6.5 6.5 6.5 6.6 5.8 6.5 6.4 6.5 6.4 6.5 6.5 6.5 6.5 6.5 6.5 5.6 5.7 3.3 5.4 6.5 6.5 6.5 6.5 6.5 6.5 6.5 6.5 6.5 6.5 6.5 6.5 6.5 6.5 6.5 6.5 5.5 3.9 0.9 -0.9 -0.9
3.6 5.9 6.4 6.5 6.3 6.5 6.5 6.5 6.5 6.4 6.1 5.5 6.5 6.5 6.5 6.5 6.5 6.5 6.5 6.5 6.4 5.4 5.9 6.5 6.5 6.5 6.5 6.5 6.5 6.5 6.5 6.5 6.5 6.5 6.5 6.5 6.5 6.5 6.5 6.5 5.0 3.1 3.1 1.9 0.3
4.1 5.2 4.8 5.1 5.4 6.5 6.5 6.5 6.5 6.5 6.5 6.5 6.5 6.5 6.6 6.5 6.5 6.5 6.5 6.5 6.5 6.4 6.5 6.5 6.5 6.5 6.5 6.5 6.5 6.5 6.5 6.6 6.5 6.5 6.5 6.5 6.5 6.5 5.2 3.3 3.8 3.5 3.4 3.0 2.1
4.2 6.1 6.1 5.8 6.4 6.5 6.5 6.5 6.5 6.5 5.9 5.9 6.4 6.5 6.5 6.5 5.3 3.8 4.4 4.6 6.0 6.5 6.5 6.5 6.5 6.5 6.5 6.5 6.5 6.5 6.5 6.5 6.5 6.5 6.5 6.5 6.5 6.5 6.5 6.1 5.1 4.2 4.6 4.0 3.0
Wind_Speed
22 23 22 22 21 21 22 23 21 21 18 17 16 16 15 15 14 2 4 8 4 7 8 6 3 3 2 3 1 2 4 2 1 4 4 4 4 6 7 8 5 4 9 13 15
23 23 24 24 23 23 22 22 22 22 19 16 15 16 15 13 3 8 9 10 12 12 4 4 3 5 2 1 4 4 3 6 5 5 5 5 5 5 4 7 8 12 16 17 16
25 24 24 24 24 25 23 23 22 23 20 16 15 15 15 10 3 7 3 15 14 12 3 2 3 3 2 2 2 2 5 4 3 8 11 4 4 3 10 4 6 16 15 15 14
25 26 26 25 25 25 25 25 24 23 21 16 14 14 15 3 5 2 3 17 14 7 4 3 3 2 2 3 4 3 5 3 6 7 6 4 6 7 2 4 14 15 16 14 14
25 26 27 27 26 26 26 25 25 23 21 17 12 11 3 0 9 3 8 8 6 6 4 3 1 2 2 2 4 1 4 7 12 8 7 7 6 6 7 13 13 16 14 14 13
25 25 26 27 27 27 27 26 24 23 20 15 10 8 0 4 2 1 9 8 4 4 3 5 5 3 2 2 3 4 13 12 9 8 5 8 4 4 5 10 12 14 14 12 13
25 25 26 27 29 29 29 28 26 22 17 10 6 2 0 12 5 5 5 5 5 4 5 5 3 2 1 4 5 8 9 10 4 5 4 13 2 2 12 12 11 12 12 13 13
25 26 27 28 28 30 31 29 28 20 8 4 2 1 7 5 5 3 6 2 4 4 2 5 3 2 3 3 6 6 6 4 4 5 6 1 1 4 10 12 10 10 10 11 12
26 27 28 29 31 30 33 32 21 4 4 3 1 2 9 7 3 4 7 3 3 2 3 1 3 4 5 6 5 6 4 3 2 7 7 1 2 7 9 9 9 9 9 9 9
25 27 29 30 32 33 35 22 4 0 1 2 2 2 5 3 4 4 3 4 4 1 2 3 5 4 4 5 5 6 4 2 6 8 4 6 5 9 13 10 11 10 8 8 9
25 27 29 31 33 35 12 3 4 2 1 8 5 3 5 8 3 3 5 5 2 6 5 2 4 5 8 6 5 5 6 6 6 5 5 8 5 11 13 11 10 9 9 8 11
24 26 28 31 35 27 3 5 5 4 8 9 14 8 7 3 5 3 6 6 4 4 3 4 6 5 7 7 8 7 6 6 4 4 10 6 4 8 13 14 11 11 10 11 9
24 25 27 30 36 4 3 6 3 3 3 8 7 6 6 9 8 7 8 6 4 5 6 7 5 6 7 5 4 4 5 4 5 4 4 7 2 7 7 10 9 11 12 12 14
23 24 25 33 4 5 4 5 8 2 3 7 6 8 6 8 4 9 7 6 2 10 6 4 4 5 3 3 7 5 7 7 9 7 5 2 4 6 9 13 12 15 15 15 16
21 22 19 12 4 4 3 11 7 2 3 4 5 2 5 11 6 5 6 5 8 6 7 9 7 5 5 8 7 8 3 2 6 6 6 1 3 6 8 11 19 18 17 18 17
21 19 18 1 2 7 14 10 2 4 8 5 6 8 7 4 5 4 6 6 5 5 2 5 3 5 8 4 9 3 6 9 7 4 2 6 6 5 6 16 17 18 18 19 18
26 20 13 5 4 2 7 3 3 5 2 5 6 6 5 7 5 7 11 10 7 5 5 1 5 3 3 4 1 5 6 3 3 2 5 2 5 10 9 13 17 22 23 20 18
22 31 10 7 13 7 3 4 6 8 9 4 1 4 8 5 5 6 12 14 2 6 4 7 3 8 4 9 8 6 8 6 6 5 3 3 5 7 5 9 9 13 20 14 15
24 3 4 4 15 3 4 4 11 6 6 4 3 4 5 4 7 5 9 17 15 9 7 6 6 4 6 5 10 5 3 5 8 3 3 3 7 10 5 5 5 10 9 13 15
3 4 4 3 14 3 3 7 6 4 3 2 9 4 9 6 6 8 10 8 7 8 3 7 2 5 3 5 4 5 7 3 3 5 4 4 4 5 7 6 4 8 12 13 10
3 4 3 8 1 3 5 7 5 5 2 1 4 4 4 6 7 10 11 2 15 9 7 6 3 3 3 5 9 2 2 6 6 4 6 2 6 6 7 6 8 9 9 9 9
2 3 3 3 2 0 4 6 3 4 2 3 1 2 3 1 5 7 9 12 12 10 12 7 4 4 7 1 1 4 7 6 5 4 1 4 6 5 8 9 7 9 8 5 6
2 3 4 2 3 2 5 5 3 4 4 5 4 2 2 3 4 3 5 2 8 10 12 8 2 2 8 5 2 4 4 5 6 4 7 7 5 3 3 4 4 6 5 5 8
2 3 4 3 1 2 5 5 9 4 3 1 2 0 3 1 2 2 2 2 2 9 10 13 5 9 9 6 5 4 5 5 7 5 6 6 5 5 7 9 7 4 4 6 7
2 2 0 4 3 4 1 5 6 5 9 6 3 6 5 4 2 3 2 3 4 5 7 7 8 7 7 8 6 5 5 9 6 6 7 9 11 12 15 16 7 5 3 8 10
1 1 2 3 4 5 1 1 4 11 5 9 6 5 8 7 7 5 4 2 3 7 4 3 4 7 6 8 9 8 9 9 5 4 2 6 6 7 2 6 7 10 9 9 11
2 2 1 4 4 3 1 4 6 9 6 11 8 4 6 7 7 8 3 2 6 2 3 0 6 4 8 3 7 6 17 6 5 5 7 6 12 8 6 11 11 9 7 11 13
Wind_Direction
7 2 1 357 355 352 348 345 344 341 336 333 324 320 322 322 314 158 249 225 200 173 109 128 144 155 87 342 186 185 63 132 241 135 142 147 107 36 72 101 49 15 112 118 131
5 2 358 355 351 349 346 343 340 339 335 334 324 319 321 330 288 249 240 198 207 137 100 146 112 138 71 282 335 86 107 213 169 141 137 124 96 120 93 93 92 93 109 127 136
1 359 356 352 348 346 343 340 338 336 332 332 325 319 319 323 318 256 279 181 188 153 131 159 97 93 91 74 270 150 175 196 90 100 115 110 87 87 124 98 143 137 135 139 142
358 356 354 350 346 342 339 337 334 333 328 326 324 318 318 293 214 25 296 184 179 155 137 95 85 113 224 213 184 126 251 105 100 105 105 108 117 111 344 123 139 141 143 149 155
356 354 350 348 344 339 336 332 330 328 324 319 321 324 328 285 250 125 77 145 130 148 196 116 153 203 284 192 110 306 71 66 103 95 94 117 84 90 83 117 130 143 151 159 168
351 350 348 344 341 336 331 327 326 324 320 315 318 318 253 238 215 44 125 133 185 176 169 160 212 221 259 320 105 105 89 102 90 111 114 105 129 79 115 129 140 155 164 170 179
346 345 343 342 338 333 326 323 322 317 311 308 312 303 187 233 108 68 159 179 180 189 178 200 167 53 309 54 45 96 75 80 94 125 84 118 22 70 142 148 160 169 174 180 188
340 340 339 338 336 330 323 320 317 309 291 290 287 303 245 258 314 298 144 257 206 223 229 166 132 114 46 96 31 73 63 88 234 137 155 336 127 134 162 157 172 180 185 187 195
337 337 337 336 333 328 321 317 315 306 150 142 57 67 267 313 258 212 148 206 156 169 240 241 110 99 25 87 39 21 164 150 197 183 161 70 181 168 179 183 182 190 194 198 196
335 334 334 334 331 327 323 313 265 104 147 194 255 350 275 274 255 154 158 126 80 103 100 73 57 98 45 86 193 192 132 206 196 204 179 157 243 170 184 203 201 192 195 203 204
332 333 332 332 329 328 339 13 13 358 32 205 201 251 283 295 292 178 138 100 65 61 150 28 90 207 202 148 147 138 168 203 219 197 149 192 177 192 190 209 213 206 200 199 214
329 330 332 331 326 326 309 72 66 259 306 238 249 268 264 33 319 299 126 133 139 160 141 49 211 199 107 137 145 146 165 248 299 202 177 161 205 188 196 215 218 205 211 212 220
326 328 331 333 324 21 316 114 40 350 212 287 202 198 213 146 208 251 138 135 137 142 175 165 186 137 133 159 174 201 192 186 180 118 56 122 335 178 214 217 217 221 214 218 212
322 326 334 335 51 336 291 342 323 240 20 266 228 252 154 150 235 196 174 139 166 180 146 225 219 151 124 195 147 256 194 242 151 141 177 156 250 222 209 212 220 218 206 210 209
319 323 332 340 289 311 321 321 320 88 317 239 208 117 161 161 149 229 171 58 164 163 120 233 180 158 178 215 164 225 56 19 160 108 106 304 61 256 170 222 223 223 212 212 206
317 317 324 344 287 248 315 309 108 56 242 291 166 172 140 202 184 118 128 80 145 125 96 199 250 173 194 169 175 125 77 41 51 76 15 193 147 279 185 218 228 217 222 212 210
311 311 298 271 238 150 327 23 85 179 272 247 200 156 184 167 163 156 158 163 157 129 226 219 240 238 156 42 3 88 72 32 37 345 211 153 116 242 237 242 216 202 216 210 204
313 308 260 211 234 257 11 71 205 196 217 303 119 113 183 149 198 172 152 184 230 107 111 158 251 163 182 183 181 174 158 149 184 187 198 38 225 253 242 256 234 212 212 209 202
321 308 277 256 202 136 106 182 209 198 193 191 13 133 219 244 139 138 177 194 195 174 152 142 259 249 191 159 141 185 147 167 102 12 73 209 280 307 259 310 197 194 183 203 199
322 333 271 320 159 122 106 239 212 219 311 156 188 176 191 207 143 151 170 190 196 174 153 202 178 221 154 118 37 140 153 93 14 132 210 272 267 236 326 327 314 188 191 202 197
40 343 272 165 145 65 206 223 262 235 281 19 184 199 197 186 168 175 191 232 179 184 151 149 100 270 121 179 163 108 115 54 110 116 155 172 266 212 241 254 226 225 220 196 181
55 323 325 14 103 285 182 185 247 293 171 287 262 211 206 120 136 173 180 213 194 147 180 189 143 211 205 160 355 146 168 139 132 219 105 141 267 262 258 236 207 226 223 198 165
354 260 311 90 196 266 263 255 236 250 193 195 228 215 350 181 121 154 188 228 174 159 160 177 221 19 336 356 44 174 179 119 115 90 187 141 252 322 270 203 190 194 182 129 136
62 344 318 22 334 4 344 233 214 222 261 48 225 140 103 19 8 123 148 259 33 199 166 149 148 176 207 190 163 173 176 165 131 126 174 210 188 242 218 207 216 177 116 107 122
45 265 294 323 328 331 203 303 206 237 207 174 240 201 152 167 153 200 245 321 33 340 133 140 193 179 218 199 177 216 179 162 162 187 163 223 187 208 202 201 183 155 131 127 123
116 89 338 263 295 297 125 285 282 229 202 220 200 197 185 197 182 174 147 64 284 1 92 25 218 170 242 222 190 221 237 185 163 134 289 124 236 218 137 100 164 175 153 147 137
286 268 271 293 321 312 11 341 306 339 265 236 208 208 223 229 229 232 238 238 249 40 358 46 141 113 234 158 114 270 232 185 183 175 157 168 221 159 156 197 198 171 164 154 147